Voltar ao catálogo

STARLINK-32836

AtivoComunicaçõesVLEO
NORAD 62965·PAYLOAD·🇺🇸 United States

Lançado Feb 11, 2025 de Vandenberg Space Force Base

Loading…

Próximas Passagens (próximas 24 horas)

TLE

AtualizadoSource: CelesTrak SupGP

Época: Sep 15, 2026, 02:12 UTC

1 62965C 25029T   26258.09215278 -.00025964  00000+0 -76715-3 0  2587
2 62965  53.1571  67.2721 0001132  86.4898 232.1156 15.34401566    13

Acompanhe STARLINK-32836 em tempo real com AllMySat

Download on the App Store